Regional Weather Roundup
Issued by NWS

Home | Current Version | Previous Version | Text Only | Print | Product List | Glossary Off
Versions: 1 2 3 4 5 6 7 8 9 10 11 12 13 14 15 16 17 18 19 20 21 22 23 24 25 26 27 28 29 30 31 32 33 34 35 36 37 38 39 40 41 42 43 44 45 46 47 48 49 50

732
ASUS43 KLMK 140210
RWRKY
KENTUCKY REGIONAL WEATHER ROUNDUP
NATIONAL WEATHER SERVICE LOUISVILLE KY
900 PM EST SAT FEB 13 2016

NOTE "FAIR" INDICATES FEW OR NO CLOUDS BELOW 12,000 FEET
WITH NO SIGNIFICANT WEATHER AND/OR OBSTRUCTIONS TO VISIBILITY.

KYZ001>023-026-027-061>063-070>075-140300-
WESTERN AND SOUTH CENTRAL KENTUCKY

CITY           SKY/WX    TMP DP  RH WIND       PRES   REMARKS
PADUCAH        CLOUDY    26   6  42 E9        30.47F WCI  17
HENDERSON      CLOUDY    23   3  42 NE5       30.51F WCI  17
OWENSBORO      PTCLDY    23   1  38 NE5       30.51F WCI  17
HOPKINSVILLE   CLOUDY    25   5  43 NE7       30.47F WCI  17
BOWLING GREEN  CLOUDY    25   4  40 N5        30.50F WCI  19
GLASGOW        CLOUDY    23   8  52 E3        30.48F
$$

KYZ024-025-028>034-038-045-046-053-140300-
NORTH CENTRAL KENTUCKY

CITY           SKY/WX    TMP DP  RH WIND       PRES   REMARKS
LOUISVILLE/SDF CLOUDY    22   0  38 N5        30.51F WCI  16
LOUISVILLE/LOU CLOUDY    22   1  40 E3        30.52F
FORT KNOX      CLOUDY    17   9  71 N2        30.47F
$$

KYZ035>037-039>044-047>052-055>060-089>105-140300-
NORTHEAST KENTUCKY

CITY           SKY/WX    TMP DP  RH WIND       PRES   REMARKS
LEXINGTON      CLEAR     15   2  56 NE6       30.47F WCI   6
COVINGTON      CLOUDY    14   1  56 CALM      30.49F
FRANKFORT      CLEAR     18   1  47 NE5       30.48F WCI  11
$$

KYZ054-064>069-076>088-106>120-140300-
SOUTHEAST KENTUCKY

CITY           SKY/WX    TMP DP  RH WIND       PRES   REMARKS
JACKSON        CLEAR     15   1  53 CALM      30.45S
LONDON         CLEAR     17   2  51 NE3       30.45F
SOMERSET       CLEAR     19   3  49 CALM      30.49F
MIDDLESBORO    CLEAR     19   8  63 N3        30.46S
MONTICELLO     CLEAR     18  10  71 NW6       30.49F WCI  10
$$





USA.gov is the U.S. government's official web portal to all federal, state and local government web resources and services.